1502013600.59,47991,25.0,74652.5,24.63,12.71,13.21,0,*48
1502013601.81,47992,25.0,74654.8,24.63,12.91,13.45,0,*47
1502013603.02,47993,25.0,74652.5,24.59,11.51,12.05,0,*45
1502013604.24,47994,25.0,74654.3,24.59,12.51,13.05,0,*40
1502013605.46,47995,25.0,74652.5,24.55,13.11,13.61,0,*4A
1502013606.71,47996,25.0,74654.0,24.53,12.77,13.17,0,*4F
1502013607.93,47997,25.0,74654.0,24.51,11.57,11.89,0,*48
1502013609.15,47998,25.0,74654.8,24.45,11.93,12.19,0,*40
1502013610.38,47999,25.0,74652.8,24.43,11.89,12.17,0,*42
1502013611.57,48000,25.0,74656.0,24.41,11.55,11.89,0,*43
1502013612.78,48001,25.0,74654.5,24.37,12.03,12.29,0,*4A
1502013613.96,48002,25.0,74654.5,24.37,12.27,12.51,0,*40
1502013615.18,48003,25.0,74656.5,24.33,11.85,12.09,0,*43
1502013616.4,48004,25.0,74656.5,24.31,11.85,12.03,0,*4C
1502013617.62,48005,25.0,74658.8,24.29,12.17,12.19,0,*47
1502013618.89,48006,25.0,74656.8,24.23,11.37,11.37,0,*40
1502013620.14,48007,25.0,74652.5,24.19,11.09,11.07,0,*46
1502013621.38,48008,25.0,74654.8,24.15,11.65,11.57,0,*4A
1502013622.62,48009,25.0,74654.0,24.15,11.17,10.99,0,*4D
1502013623.86,48010,25.0,74652.3,24.11,10.99,10.75,0,*44
1502013625.08,48011,25.0,74654.0,24.11,11.31,10.89,0,*45
1502013626.33,48012,25.0,74658.3,24.05,11.13,10.71,0,*44
1502013627.52,48013,25.0,74654.8,23.99,10.51,10.17,0,*40
1502013628.78,48014,25.0,74654.8,23.97,11.21,10.75,0,*4B
1502013630.06,48015,25.0,74656.8,23.93,11.33,10.99,0,*4F
1502013631.31,48016,25.0,74658.3,23.89,11.09,10.65,0,*4D
1502013632.58,48017,25.0,74658.0,23.89,11.07,10.65,0,*42
1502013633.83,48018,25.0,74658.0,23.85,10.65,10.13,0,*45
1502013635.03,48019,25.0,74652.8,23.79,10.43,9.99,0,*79
1502013636.21,48020,25.0,74656.5,23.77,9.95,9.43,0,*49
1502013637.42,48021,25.0,74658.5,23.73,10.33,9.89,0,*7E
1502013638.67,48022,25.0,74656.5,23.71,10.79,10.33,0,*48
1502013639.91,48023,25.0,74656.0,23.67,11.21,10.83,0,*49
1502013641.12,48024,25.0,74658.5,23.65,11.27,10.93,0,*4B
1502013642.33,48025,25.0,74658.0,23.65,11.47,11.13,0,*45
1502013643.51,48026,25.0,74654.3,23.61,11.51,11.17,0,*41
1502013644.72,48027,25.0,74656.8,23.57,10.89,10.61,0,*41
1502013645.94,48028,25.0,74652.5,23.57,11.09,10.71,0,*46
1502013647.21,48029,25.0,74656.5,23.55,11.67,11.23,0,*4B
1502013648.43,48030,25.0,74656.0,23.53,11.31,10.85,0,*4B
1502013649.67,48031,25.0,74656.8,23.51,11.31,10.85,0,*48
1502013650.91,48032,25.0,74654.3,23.47,11.07,10.71,0,*42
1502013652.15,48033,25.0,74656.3,23.45,10.57,10.13,0,*41
1502013653.33,48034,25.0,74654.3,23.43,10.55,9.99,0,*78
1502013654.57,48035,25.0,74654.0,23.39,10.37,9.81,0,*79
1502013655.79,48036,25.0,74652.8,23.37,10.43,9.91,0,*76
1502013657.0,48037,25.0,74652.8,23.31,10.43,9.77,0,*79
1502013658.25,48038,25.0,74652.0,23.29,10.69,10.19,0,*47
1502013659.48,48039,25.0,74652.8,23.27,11.13,10.57,0,*4E
1502013660.69,48040,25.0,74656.8,23.27,10.93,10.37,0,*4F
1502013661.94,48041,25.0,74654.5,23.23,11.07,10.41,0,*47
1502013663.15,48042,25.0,74654.5,23.23,10.89,10.41,0,*43
1502013664.39,48043,25.0,74654.3,23.19,11.07,10.57,0,*4B
1502013665.66,48044,25.0,74652.3,23.17,11.03,10.57,0,*46
1502013666.91,48045,25.0,74656.8,23.15,11.07,10.51,0,*47
1502013668.18,48046,25.0,74654.8,23.15,11.41,11.07,0,*44
1502013669.42,48047,25.0,74656.8,23.11,11.61,11.17,0,*42
1502013670.68,48048,25.0,74656.5,23.11,11.71,11.23,0,*4B
1502013671.92,48049,25.0,74654.3,23.09,10.71,10.27,0,*47
1502013673.13,48050,25.0,74658.8,23.07,10.03,9.47,0,*7A
1502013674.33,48051,25.0,74656.8,23.05,10.13,9.47,0,*78
1502013675.53,48052,25.0,74654.3,23.01,10.65,9.99,0,*7D
1502013676.75,48053,25.0,74654.8,22.97,10.47,9.81,0,*7B
1502013677.99,48054,25.0,74658.8,22.97,10.23,9.53,0,*71
1502013679.2,48055,25.0,74656.0,22.93,10.27,9.43,0,*71
1502013680.42,48056,25.0,74654.3,22.89,10.33,9.57,0,*79
1502013681.69,48057,25.0,74656.5,22.87,10.99,10.19,0,*44
1502013682.88,48058,25.0,74652.0,22.85,10.55,9.71,0,*7F
1502013684.11,48059,25.0,74652.5,22.85,10.65,9.89,0,*7A
1502013685.33,48060,25.0,74656.0,22.81,10.69,9.91,0,*71
1502013686.54,48061,25.0,74652.8,22.79,10.79,10.03,0,*45
1502013687.78,48062,25.0,74656.8,22.79,10.99,10.27,0,*4E
1502013689.02,48063,25.0,74654.3,22.79,10.99,10.27,0,*4F
1502013690.3,48064,25.0,74656.8,22.77,11.45,10.65,0,*40
1502013691.53,48065,25.0,74654.0,22.75,11.37,10.55,0,*45
1502013692.75,48066,25.0,74658.0,22.75,10.83,10.05,0,*4D
1502013693.96,48067,25.0,74656.5,22.75,10.83,9.99,0,*71
1502013695.22,48068,25.0,74654.0,22.73,10.93,10.19,0,*49
1502013696.43,48069,25.0,74656.0,22.67,10.71,9.91,0,*79
1502013697.61,48070,25.0,74654.3,22.67,9.33,8.69,0,*49
1502013698.82,48071,25.0,74654.8,22.65,9.95,9.21,0,*4B
1502013700.06,48072,25.0,74656.3,22.61,10.71,10.09,0,*4C
1502013701.33,48073,25.0,74654.0,22.61,11.27,10.61,0,*41
1502013702.6,48074,25.0,74656.8,22.61,11.23,10.71,0,*43
1502013703.83,48075,25.0,74656.8,22.57,11.21,10.47,0,*40
1502013705.03,48076,25.0,74652.8,22.59,11.21,10.47,0,*4D
1502013706.29,48077,25.0,74654.3,22.57,10.23,9.57,0,*78
1502013707.5,48078,25.0,74654.3,22.55,10.51,9.89,0,*73
1502013708.71,48079,25.0,74658.3,22.51,10.41,9.91,0,*7E
1502013709.9,48080,25.0,74654.3,22.51,10.47,10.05,0,*4B
1502013711.11,48081,25.0,74654.8,22.51,10.93,10.37,0,*42
1502013712.33,48082,25.0,74658.5,22.49,11.21,10.69,0,*4B
1502013713.56,48083,25.0,74658.5,22.47,10.69,10.19,0,*4E
1502013714.78,48084,25.0,74654.0,22.43,10.05,9.61,0,*70
1502013716.04,48085,25.0,74652.8,22.41,10.83,10.27,0,*47
1502013717.26,48086,25.0,74654.0,22.39,10.71,10.43,0,*44
1502013718.5,48087,25.0,74652.5,22.39,11.03,10.57,0,*44
1502013719.74,48088,25.0,74656.0,22.37,11.21,10.75,0,*45
1502013720.96,48089,25.0,74654.3,22.37,10.51,10.09,0,*49
1502013722.2,48090,25.0,74654.3,22.37,10.79,10.33,0,*42
1502013723.45,48091,25.0,74654.3,22.35,11.41,11.03,0,*49
1502013724.68,48092,25.0,74652.8,22.31,10.69,10.23,0,*46
1502013725.91,48093,25.0,74654.8,22.31,10.99,10.57,0,*4B
1502013727.19,48094,25.0,74652.8,22.29,11.33,10.79,0,*48
1502013728.43,48095,25.0,74654.0,22.29,11.23,10.69,0,*49
1502013729.65,48096,25.0,74652.8,22.27,10.05,9.53,0,*70
1502013730.85,48097,25.0,74652.5,22.27,10.43,9.89,0,*74
1502013732.14,48098,25.0,74654.3,22.21,11.33,10.79,0,*4C
1502013733.4,48099,25.0,74658.3,22.21,10.83,10.27,0,*4C
1502013734.62,48100,25.0,74654.3,22.19,10.89,10.47,0,*4A
1502013735.86,48101,25.0,74652.8,22.19,10.79,10.33,0,*47
1502013737.1,48102,25.0,74656.0,22.17,10.79,10.37,0,*4E
1502013738.33,48103,25.0,74652.0,22.13,11.07,10.57,0,*45
1502013739.58,48104,25.0,74654.8,22.13,11.37,11.03,0,*41
1502013740.79,48105,25.0,74652.3,22.13,11.89,11.37,0,*42
1502013742.04,48106,25.0,74652.3,22.15,11.41,10.93,0,*4C
1502013743.26,48107,25.0,74656.8,22.13,11.37,10.93,0,*4A
1502013744.47,48108,25.0,74656.0,22.13,10.95,10.51,0,*42
1502013745.72,48109,25.06,74656.8,22.09,11.23,10.79,0,*4E
1502013746.94,48110,25.0,74652.8,22.09,11.41,10.85,0,*41
1502013748.17,48111,25.0,74652.8,22.09,11.41,10.93,0,*47
1502013749.36,48112,25.0,74652.8,22.09,10.89,10.33,0,*4B
1502013750.58,48113,25.0,74654.0,22.09,11.03,10.43,0,*4E
1502013751.82,48114,25.0,74652.0,22.05,10.79,10.27,0,*4B
1502013753.07,48115,25.0,74656.3,22.05,10.79,10.31,0,*4D
1502013754.31,48116,25.0,74652.8,22.03,10.19,9.71,0,*72
1502013755.52,48117,25.0,74648.5,22.03,10.05,9.71,0,*7E
1502013756.71,48118,25.0,74652.8,21.97,10.05,9.67,0,*78
1502013757.92,48119,25.0,74654.8,21.95,10.09,9.63,0,*73
1502013759.14,48120,25.0,74652.3,21.95,10.09,9.75,0,*7E
1502013760.38,48121,25.0,74654.3,21.93,10.19,9.85,0,*77
1502013761.62,48122,25.0,74654.3,21.91,10.93,10.65,0,*42
1502013762.84,48123,25.0,74650.8,21.91,11.13,10.89,0,*48
1502013764.06,48124,25.0,74654.5,21.91,10.89,10.55,0,*4C
1502013765.28,48125,25.0,74652.3,21.89,10.99,10.69,0,*4A
1502013766.51,48126,25.0,74650.5,21.87,10.65,10.41,0,*4E
1502013767.69,48127,25.0,74654.3,21.89,9.95,9.63,0,*4E
1502013768.92,48128,25.0,74654.5,21.85,10.19,9.95,0,*78
1502013770.14,48129,25.0,74654.8,21.83,10.05,9.77,0,*7E
1502013771.35,48130,25.0,74654.3,21.83,10.05,9.89,0,*77
1502013772.57,48131,25.0,74654.8,21.79,10.51,10.31,0,*49
1502013773.81,48132,25.0,74652.5,21.79,10.57,10.41,0,*4B
1502013775.01,48133,25.0,74654.3,21.79,10.85,10.69,0,*4F
1502013776.23,48134,25.0,74652.8,21.75,10.75,10.55,0,*44
1502013777.47,48135,25.0,74652.5,21.75,10.95,10.83,0,*40
1502013778.68,48136,25.0,74654.0,21.75,10.05,9.89,0,*78
1502013779.94,48137,25.0,74652.5,21.73,9.49,9.35,0,*48
1502013781.15,48138,25.0,74654.5,21.71,9.77,9.67,0,*4F
1502013782.36,48139,25.0,74654.3,21.67,9.57,9.21,0,*49
1502013783.59,48140,25.0,74652.0,21.65,9.07,8.93,0,*48
1502013784.79,48141,25.06,74658.5,21.63,9.07,9.03,0,*47
1502013786.02,48142,25.0,74654.5,21.61,9.99,9.89,0,*43
1502013787.24,48143,25.0,74654.5,21.59,10.51,10.41,0,*49
1502013788.49,48144,25.0,74652.8,21.57,11.17,11.07,0,*40
1502013789.7,48145,25.0,74654.5,21.57,10.55,10.43,0,*47
1502013790.97,48146,25.0,74652.8,21.57,11.27,11.27,0,*43
1502013792.25,48147,25.0,74654.8,21.57,10.31,9.89,0,*79
1502013793.47,48148,25.0,74654.3,21.53,10.69,10.61,0,*41
1502013794.71,48149,25.0,74656.3,21.53,10.61,10.41,0,*4A
1502013795.95,48150,25.0,74656.5,21.51,10.89,10.75,0,*41
1502013797.19,48151,25.0,74656.0,21.51,10.43,10.27,0,*41
1502013798.43,48152,25.0,74656.3,21.51,10.47,10.37,0,*47
1502013799.63,48153,25.0,74652.5,21.49,11.21,11.21,0,*48
1502013800.84,48154,25.0,74656.3,21.49,10.99,10.85,0,*42
1502013802.08,48155,25.06,74656.8,21.47,9.95,9.85,0,*41
1502013803.32,48156,25.0,74656.8,21.43,9.77,9.71,0,*41
1502013804.53,48157,25.06,74656.8,21.43,10.89,10.89,0,*46
1502013805.78,48158,25.0,74652.0,21.43,10.23,10.13,0,*4A
1502013807.02,48159,25.0,74658.0,21.39,9.63,9.57,0,*42
1502013808.26,48160,25.06,74656.5,21.41,9.89,9.77,0,*41
1502013809.47,48161,25.0,74658.0,21.37,10.51,10.37,0,*40
1502013810.72,48162,25.0,74658.0,21.35,10.19,10.09,0,*40
1502013811.96,48163,25.0,74656.3,21.35,9.81,9.63,0,*4C
1502013813.2,48164,25.0,74656.8,21.35,9.81,9.71,0,*48
1502013814.41,48165,25.0,74656.0,21.29,9.75,9.57,0,*4B
1502013815.65,48166,25.0,74656.0,21.29,9.85,9.77,0,*45
1502013816.84,48167,25.0,74658.0,21.25,9.75,9.75,0,*45
1502013818.08,48168,25.0,74658.3,21.25,10.41,10.41,0,*4A
1502013819.32,48169,25.0,74654.0,21.25,10.61,10.57,0,*4E
1502013820.59,48170,25.0,74658.0,21.23,10.71,10.71,0,*45
1502013821.75,48171,25.06,74656.3,21.21,9.67,9.63,0,*42
1502013823.0,48172,25.0,74658.5,21.23,10.23,10.17,0,*40
1502013824.21,48173,25.0,74658.5,21.21,9.57,9.35,0,*40
1502013825.4,48174,25.0,74654.5,21.17,10.05,9.99,0,*7B
1502013826.63,48175,25.0,74654.0,21.17,10.61,10.65,0,*43
1502013827.84,48176,25.0,74656.0,21.17,10.85,10.83,0,*42
1502013829.03,48177,25.06,74658.8,21.17,11.47,11.47,0,*45
1502013830.27,48178,25.0,74658.0,21.19,11.17,10.99,0,*43
1502013831.54,48179,25.06,74660.3,21.19,11.07,10.99,0,*43
1502013832.72,48180,25.0,74652.8,21.17,10.09,9.99,0,*7C
1502013833.98,48181,25.0,74652.8,21.19,10.79,10.79,0,*42
1502013835.2,48182,25.0,74658.0,21.17,11.47,11.41,0,*49
1502013836.45,48183,25.0,74656.8,21.19,11.71,11.71,0,*40
1502013837.72,48184,25.0,74656.8,21.19,11.61,11.61,0,*47
1502013838.95,48185,25.06,74658.3,21.21,11.71,11.75,0,*49
1502013840.2,48186,25.06,74658.3,21.23,11.67,11.67,0,*4C
1502013841.45,48187,25.06,74658.8,21.23,11.45,11.47,0,*4F
1502013842.71,48188,25.06,74662.0,21.23,10.99,11.03,0,*40
1502013843.88,48189,25.06,74658.8,21.21,10.43,10.43,0,*41
1502013845.11,48190,25.0,74656.3,21.23,10.33,10.33,0,*4B
1502013846.34,48191,25.0,74656.0,21.23,10.37,10.43,0,*49
1502013847.54,48192,25.0,74656.8,21.21,11.03,11.17,0,*4E
1502013848.74,48193,25.0,74658.5,21.21,11.71,11.85,0,*41
1502013849.97,48194,25.06,74658.0,21.23,11.65,11.75,0,*4E
1502013851.18,48195,25.0,74654.3,21.23,11.65,11.89,0,*4C
1502013852.41,48196,25.0,74656.5,21.23,11.67,12.03,0,*4C
1502013853.62,48197,25.06,74656.5,21.23,11.55,11.85,0,*41
1502013854.87,48198,25.06,74658.0,21.25,11.79,12.13,0,*4A
1502013856.12,48199,25.06,74656.5,21.27,11.57,11.89,0,*45
1502013857.39,48200,25.0,74658.0,21.27,11.33,11.67,0,*44
1502013858.65,48201,25.06,74658.8,21.27,11.61,11.99,0,*43
1502013859.9,48202,25.0,74656.0,21.27,11.13,11.41,0,*40
1502013861.13,48203,25.0,74652.0,21.27,11.13,11.47,0,*47
1502013862.41,48204,25.06,74656.5,21.27,11.37,11.61,0,*42
1502013863.64,48205,25.06,74658.0,21.25,11.57,11.89,0,*41
1502013864.89,48206,25.0,74656.0,21.27,11.51,11.79,0,*49
1502013866.11,48207,25.0,74654.8,21.25,11.89,12.13,0,*40
1502013867.36,48208,25.06,74656.8,21.27,11.47,11.67,0,*4F
1502013868.6,48209,25.0,74656.3,21.27,11.17,11.33,0,*4A
1502013869.84,48210,25.0,74658.0,21.25,11.47,11.61,0,*42
1502013871.08,48211,25.06,74658.0,21.25,12.13,12.33,0,*45
1502013872.3,48212,25.0,74654.5,21.25,12.33,12.47,0,*47
1502013873.52,48213,25.06,74658.0,21.25,11.79,11.81,0,*42
1502013874.74,48214,25.06,74656.3,21.25,12.17,12.23,0,*45
1502013875.97,48215,25.06,74658.0,21.27,12.27,12.43,0,*43
1502013877.19,48216,25.0,74654.5,21.27,12.23,12.27,0,*46
1502013878.41,48217,25.06,74658.8,21.27,11.89,11.89,0,*43
1502013879.65,48218,25.06,74658.5,21.27,11.79,11.81,0,*4B
1502013880.9,48219,25.06,74658.3,21.25,12.05,12.17,0,*4C
1502013882.09,48220,25.06,74656.5,21.25,11.93,11.93,0,*45
1502013883.28,48221,25.06,74658.3,21.25,11.81,11.93,0,*47
1502013884.53,48222,25.0,74658.0,21.25,11.67,11.61,0,*41
1502013885.77,48223,25.0,74656.8,21.23,11.57,11.65,0,*41
1502013887.04,48224,25.0,74656.5,21.23,11.37,11.37,0,*47
1502013888.27,48225,25.06,74656.0,21.23,11.79,11.85,0,*45
1502013889.46,48226,25.06,74658.0,21.21,11.51,11.55,0,*43
1502013890.66,48227,25.0,74656.3,21.21,11.65,11.71,0,*43
1502013891.88,48228,25.0,74658.5,21.21,11.45,11.51,0,*4C
1502013893.13,48229,25.0,74654.5,21.19,12.29,12.29,0,*43
1502013894.33,48230,25.0,74658.5,21.19,11.81,11.81,0,*4B
1502013895.54,48231,25.06,74658.8,21.19,11.93,11.93,0,*4A
1502013896.75,48232,25.0,74656.3,21.19,12.19,12.27,0,*44
1502013897.98,48233,25.06,74658.3,21.19,12.29,12.27,0,*46
1502013899.25,48234,25.06,74656.8,21.19,12.09,12.09,0,*4F
1502013900.45,48235,25.0,74656.0,21.17,11.95,11.93,0,*46
1502013901.68,48236,25.06,74656.5,21.17,11.71,11.67,0,*44
1502013902.9,48237,25.0,74658.3,21.17,11.57,11.47,0,*43
1502013904.14,48238,25.06,74658.5,21.17,11.79,11.79,0,*4D
1502013905.36,48239,25.06,74658.8,21.17,12.13,12.13,0,*4C
1502013906.55,48240,25.06,74658.5,21.17,11.89,11.93,0,*49
1502013907.77,48241,25.06,74660.0,21.17,12.13,12.05,0,*44
1502013908.98,48242,25.0,74656.3,21.15,12.03,11.99,0,*42
1502013910.19,48243,25.06,74658.0,21.15,11.85,11.89,0,*4F
1502013911.42,48244,25.06,74658.3,21.13,12.33,12.33,0,*42
1502013912.61,48245,25.06,74658.8,21.13,11.93,11.99,0,*49
1502013913.83,48246,25.06,74660.3,21.15,12.19,12.13,0,*4C
1502013915.05,48247,25.06,74658.8,21.13,12.09,12.19,0,*40
1502013916.23,48248,25.06,74658.8,21.13,12.61,12.61,0,*4E
1502013917.47,48249,25.06,74658.8,21.15,12.73,12.67,0,*4C
1502013918.68,48250,25.06,74660.3,21.13,12.51,12.53,0,*45
1502013919.88,48251,25.0,74656.3,21.13,12.77,12.83,0,*4D
1502013921.12,48252,25.06,74658.0,21.15,12.29,12.23,0,*49
1502013922.37,48253,25.0,74656.3,21.15,12.53,12.53,0,*42
1502013923.6,48254,25.06,74658.3,21.15,12.53,12.51,0,*47
1502013924.82,48255,25.06,74658.8,21.15,12.43,12.43,0,*44
1502013926.06,48256,25.06,74660.0,21.15,12.53,12.43,0,*46
1502013927.26,48257,25.06,74658.0,21.13,12.19,12.09,0,*41
1502013928.47,48258,25.06,74658.8,21.15,11.99,11.93,0,*43
1502013929.68,48259,25.0,74656.3,21.15,11.93,11.89,0,*43
1502013930.89,48260,25.0,74656.8,21.15,11.65,11.55,0,*41
1502013932.1,48261,25.06,74658.8,21.13,11.33,11.21,0,*46
1502013933.32,48262,25.0,74656.0,21.13,11.55,11.45,0,*47
1502013934.55,48263,25.0,74658.5,21.11,11.07,10.85,0,*4E
1502013935.77,48264,25.06,74660.5,21.07,11.13,10.93,0,*4C
1502013937.02,48265,25.06,74660.5,21.11,11.33,11.09,0,*4A
1502013938.26,48266,25.0,74656.0,21.07,11.13,11.03,0,*46
1502013939.52,48267,25.0,74656.3,21.07,11.57,11.41,0,*41
1502013940.79,48268,25.06,74660.3,21.07,11.67,11.61,0,*4F
1502013942.0,48269,25.06,74660.0,21.07,11.17,11.21,0,*4D
1502013943.22,48270,25.06,74662.5,21.05,10.99,10.99,0,*42
1502013944.45,48271,25.06,74656.8,21.05,11.27,11.33,0,*46
1502013945.68,48272,25.0,74658.8,21.05,11.23,11.27,0,*44
1502013946.85,48273,25.06,74656.8,21.05,10.89,10.89,0,*41
1502013948.08,48274,25.06,74660.0,21.05,10.83,10.83,0,*46
1502013949.34,48275,25.06,74658.8,21.03,10.61,10.61,0,*41
1502013950.61,48276,25.0,74656.3,21.03,10.79,10.79,0,*42
1502013951.83,48277,25.06,74658.8,21.03,11.09,11.13,0,*48
1502013953.09,48278,25.06,74656.8,21.03,11.27,11.27,0,*4C
1502013954.32,48279,25.06,74660.3,21.05,11.67,11.79,0,*44
1502013955.56,48280,25.06,74658.0,21.05,11.37,11.45,0,*48
1502013956.82,48281,25.06,74658.5,21.03,10.61,10.79,0,*43
1502013958.06,48282,25.06,74656.5,21.07,11.13,11.37,0,*4B
1502013959.32,48283,25.06,74660.5,21.07,10.65,10.83,0,*44
1502013960.53,48284,25.06,74658.0,21.05,10.23,10.47,0,*4B
1502013961.71,48285,25.06,74658.5,21.05,10.33,10.51,0,*4C
1502013962.91,48286,25.06,74658.8,21.05,9.61,9.91,0,*44
1502013964.12,48287,25.06,74658.0,21.05,10.33,10.61,0,*4D
1502013965.29,48288,25.06,74658.0,21.05,10.47,10.89,0,*47
1502013966.53,48289,25.06,74658.5,21.07,11.07,11.47,0,*42
1502013967.76,48290,25.0,74656.3,21.11,10.55,10.99,0,*49
1502013969.0,48291,25.06,74656.0,21.07,10.05,10.41,0,*4F
1502013970.2,48292,25.06,74656.8,21.07,9.63,10.05,0,*74
1502013971.41,48293,25.06,74658.3,21.11,9.99,10.43,0,*75
1502013972.68,48294,25.06,74656.3,21.11,9.89,10.19,0,*7C
1502013973.94,48295,25.06,74658.5,21.11,9.81,10.23,0,*7C
1502013975.17,48296,25.06,74658.0,21.11,9.57,9.99,0,*4D
1502013976.38,48297,25.06,74658.8,21.11,9.75,10.03,0,*77
1502013977.63,48298,25.06,74658.5,21.15,9.15,9.57,0,*43
1502013978.81,48299,25.06,74658.0,21.13,9.71,10.03,0,*7F
1502013980.0,48300,25.06,74656.8,21.13,10.17,10.69,0,*4A
1502013981.18,48301,25.06,74656.0,21.13,10.03,10.33,0,*41
1502013982.44,48302,25.06,74656.8,21.15,10.27,10.61,0,*45
1502013983.67,48303,25.06,74656.3,21.15,10.43,10.71,0,*47
1502013984.89,48304,25.06,74654.0,21.19,8.69,9.11,0,*43
1502013986.06,48305,25.06,74658.0,21.17,8.05,8.19,0,*4F
1502013987.28,48306,25.06,74658.0,21.17,7.77,7.87,0,*4E
1502013988.48,48307,25.06,74654.0,21.13,7.83,8.01,0,*41
1502013989.68,48308,25.06,74654.5,21.13,7.83,8.05,0,*4A
1502013990.84,48309,25.06,74654.5,21.13,8.05,8.23,0,*4E
1502013992.07,48310,25.06,74656.0,21.13,8.89,8.93,0,*49
1502013993.27,48311,25.0,74654.0,21.13,8.89,9.03,0,*40
1502013994.47,48312,25.06,74652.8,21.13,9.85,9.95,0,*41
1502013995.7,48313,25.06,74656.3,21.15,9.77,9.91,0,*4F
1502013996.95,48314,25.06,74656.3,21.15,8.89,8.93,0,*4B
1502013998.21,48315,25.06,74652.3,21.15,9.39,9.49,0,*46
1502013999.38,48316,25.06,74652.3,21.17,9.29,9.43,0,*4C
1502014000.61,48317,25.06,74652.3,21.19,9.25,9.53,0,*4E
1502014001.82,48318,25.06,74654.0,21.19,9.75,10.09,0,*73
1502014003.03,48319,25.06,74654.0,21.21,10.03,10.23,0,*48
1502014004.26,48320,25.06,74654.3,21.23,9.95,10.23,0,*77
1502014005.5,48321,25.06,74652.8,21.23,9.91,10.27,0,*76
1502014006.78,48322,25.06,74652.8,21.27,9.85,10.19,0,*79
1502014008.02,48323,25.0,74648.8,21.27,9.99,10.27,0,*78
1502014009.27,48324,25.0,74648.3,21.27,9.99,10.27,0,*7F
1502014010.51,48325,25.06,74652.3,21.29,10.31,10.61,0,*48
1502014011.76,48326,25.06,74652.8,21.31,10.27,10.55,0,*42
1502014012.99,48327,25.06,74652.3,21.37,10.19,10.51,0,*4C
1502014014.23,48328,25.06,74652.0,21.35,10.61,10.93,0,*40
1502014015.47,48329,25.06,74654.5,21.37,10.41,10.57,0,*49
1502014016.69,48330,25.06,74652.8,21.37,10.37,10.69,0,*4D
1502014017.94,48331,25.06,74654.3,21.37,10.31,10.57,0,*47
1502014019.19,48332,25.06,74652.5,21.37,10.31,10.57,0,*44
1502014020.43,48333,25.06,74652.3,21.39,10.55,10.95,0,*47
1502014021.68,48334,25.06,74648.5,21.41,10.65,10.99,0,*40
1502014022.91,48335,25.06,74654.5,21.41,10.47,10.79,0,*4F
1502014024.12,48336,25.06,74648.5,21.41,10.55,11.03,0,*43
1502014025.34,48337,25.06,74652.8,21.41,10.89,11.33,0,*40
1502014026.56,48338,25.06,74652.5,21.43,10.55,11.13,0,*4E
1502014027.81,48339,25.06,74654.5,21.43,10.93,11.45,0,*46
1502014029.02,48340,25.06,74654.3,21.45,11.17,11.67,0,*43
1502014030.27,48341,25.06,74650.3,21.47,10.75,11.17,0,*42
1502014031.49,48342,25.06,74654.0,21.49,10.55,10.95,0,*46
1502014032.71,48343,25.06,74652.8,21.49,10.83,11.09,0,*48
1502014033.95,48344,25.06,74652.8,21.49,10.61,10.71,0,*4D
1502014035.19,48345,25.06,74654.0,21.49,10.61,10.65,0,*49
1502014036.44,48346,25.06,74654.0,21.49,10.19,10.31,0,*44
1502014037.69,48347,25.06,74654.5,21.49,10.75,10.75,0,*4F
1502014038.93,48348,25.06,74652.8,21.49,10.71,10.75,0,*44
1502014040.2,48349,25.06,74654.0,21.51,11.03,11.23,0,*4A
1502014041.45,48350,25.06,74654.5,21.51,10.65,10.69,0,*4C
1502014042.69,48351,25.06,74652.8,21.51,10.37,10.47,0,*46
1502014043.93,48352,25.06,74652.8,21.51,10.89,10.99,0,*43
1502014045.18,48353,25.06,74652.8,21.51,10.79,10.89,0,*4C
1502014046.43,48354,25.06,74654.8,21.49,11.07,11.07,0,*4D
1502014047.7,48355,25.06,74652.8,21.51,11.31,11.31,0,*45
1502014048.92,48356,25.06,74652.3,21.51,11.55,11.51,0,*42
1502014050.17,48357,25.06,74650.8,21.51,11.55,11.33,0,*47
1502014051.4,48358,25.06,74652.0,21.51,10.69,10.47,0,*44
1502014052.6,48359,25.06,74656.0,21.49,10.51,10.09,0,*4D
1502014053.82,48360,25.06,74652.8,21.49,10.65,10.33,0,*49
1502014055.08,48361,25.06,74654.8,21.47,11.09,10.71,0,*4B
1502014056.36,48362,25.06,74652.3,21.47,10.99,10.61,0,*41
1502014057.57,48363,25.06,74652.3,21.47,10.55,9.99,0,*7F
1502014058.77,48364,25.06,74652.0,21.45,10.51,10.03,0,*45
1502014059.99,48365,25.06,74652.8,21.43,10.17,9.67,0,*7A
1502014061.24,48366,25.06,74650.5,21.43,10.33,9.77,0,*7E
1502014062.48,48367,25.06,74654.0,21.39,10.19,9.63,0,*7F
1502014063.72,48368,25.06,74652.3,21.39,10.61,9.99,0,*7A
1502014064.94,48369,25.06,74650.0,21.39,11.21,10.43,0,*41
1502014066.2,48370,25.06,74648.3,21.37,11.61,11.07,0,*42
1502014067.42,48371,25.06,74652.8,21.37,11.89,11.33,0,*42
1502014068.65,48372,25.06,74652.5,21.37,11.81,11.33,0,*49
1502014069.87,48373,25.06,74652.3,21.35,11.93,11.47,0,*4A
1502014071.15,48374,25.06,74654.0,21.35,11.33,10.95,0,*49
1502014072.37,48375,25.06,74650.5,21.35,11.89,11.51,0,*40
1502014073.64,48376,25.06,74650.5,21.35,12.17,11.71,0,*45
1502014074.92,48377,25.06,74652.8,21.35,11.37,10.95,0,*4E
1502014076.15,48378,25.06,74652.0,21.35,11.13,10.69,0,*44
1502014077.41,48379,25.06,74648.8,21.31,11.21,10.79,0,*41
1502014078.64,48380,25.06,74648.8,21.29,11.21,10.95,0,*4C
1502014079.88,48381,25.06,74654.0,21.29,11.71,11.31,0,*47
1502014081.11,48382,25.06,74652.8,21.29,11.55,11.07,0,*47
1502014082.39,48383,25.06,74648.8,21.27,11.41,10.95,0,*47
1502014083.66,48384,25.06,74650.0,21.27,11.71,11.23,0,*4F
1502014084.87,48385,25.06,74650.5,21.25,11.99,11.47,0,*48
1502014086.09,48386,25.06,74654.5,21.25,12.05,11.51,0,*4A
1502014087.3,48387,25.06,74654.8,21.25,12.27,11.67,0,*4E
1502014088.53,48388,25.06,74650.0,21.25,12.57,12.03,0,*47
1502014089.77,48389,25.06,74652.0,21.27,12.73,12.17,0,*47
1502014091.01,48390,25.06,74652.8,21.25,12.63,12.13,0,*48
1502014092.26,48391,25.06,74650.0,21.27,12.81,12.33,0,*45
1502014093.52,48392,25.06,74650.0,21.27,12.13,11.67,0,*4F
1502014094.73,48393,25.06,74652.3,21.25,11.99,11.47,0,*4F
1502014095.97,48394,25.06,74648.8,21.25,11.71,11.27,0,*48
1502014097.19,48395,25.06,74648.5,21.25,11.81,11.41,0,*46
1502014098.4,48396,25.06,74650.3,21.21,11.51,11.07,0,*4E
1502014099.59,48397,25.06,74652.3,21.21,11.55,11.21,0,*4F
1502014100.82,48398,25.06,74654.3,21.21,12.09,11.75,0,*4B
1502014102.03,48399,25.06,74650.5,21.21,12.39,12.05,0,*4D
1502014103.24,48400,25.06,74650.5,21.21,12.09,11.65,0,*4C
1502014104.45,48401,25.06,74650.5,21.21,11.21,10.95,0,*4A
1502014105.67,48402,25.06,74650.5,21.17,11.47,11.27,0,*44
1502014106.88,48403,25.06,74648.3,21.17,11.07,10.85,0,*48
1502014108.11,48404,25.06,74648.5,21.17,11.71,11.57,0,*40
1502014109.35,48405,25.06,74648.3,21.15,11.93,11.79,0,*43
1502014110.59,48406,25.06,74644.5,21.13,11.45,11.23,0,*42
1502014111.83,48407,25.06,74648.0,21.13,11.33,11.23,0,*42
1502014113.07,48408,25.06,74648.0,21.07,11.17,11.07,0,*48
1502014114.31,48409,25.06,74650.0,21.07,11.47,11.37,0,*4F
1502014115.54,48410,25.06,74650.0,21.07,11.51,11.41,0,*41